sat.trackr.live / text

‹ back to catalog

2026-134F

NORAD 69543 · 2026-134F

PAYLOAD ACTIVE UNKNOWN

§ Identity

Operator
Country
PRC
Launch date
2026-06-15
Launch site
JSC
Launch vehicle
Mass (kg)
RCS (m²)

External: N2YO · Heavens-Above · Gunter

§ Orbital elements

Epoch: 2026-09-18T23:21:07.735680Z

Period
95.45 min
Inclination
97.6917°
Eccentricity
0.0019410
Mean motion
15.08660780 rev/d
Perigee alt
526.9 km
Apogee alt
553.7 km
Semi-major
6,918.4 km
B*
1.7604e-4
RAAN
332.4605°
Arg perigee
311.4431°
Mean anomaly
48.5129°
Rev number
1,445

§ Raw data

2026-134F1 69543U 26134F   26261.97300620  .00002702  00000+0  17604-3 0  99982 69543  97.6917 332.4605 0019410 311.4431  48.5129 15.08660780 14457

JSON: /api/v1/satellites/69543 · /tle

For live sub-satellite position, see the globe view (requires WebGL).

§ Visibility from observer

Set your observer location to see the next 7 days of passes ≥ 10°. The values pass through the URL so the page stays shareable.

No JS? Fill the form by hand. The geolocation button needs JavaScript.